FM1HN Weather Reports


Display with metric or nautical units.
time (UTC)temp
F
wind
direction
speed
MPH
gust
MPH
rain 1hr
in
rain 24hr
in
rain mn
in
humidity
%
barometer
mb
20200120003507 75 76 0.0 2.0 0.00 0.57 0.51 75 1017.1
20200120003008 75 79 0.0 0.0 0.00 0.57 0.51 76 1017.2
20200120002507 74 131 0.0 2.0 0.00 0.57 0.51 77 1017.0
20200120002007 74 76 0.0 5.0 0.00 0.57 0.51 77 1016.9
20200120001509 74 53 0.0 0.0 0.00 0.57 0.51 76 1017.1
20200120001008 74 93 0.0 5.0 0.00 0.57 0.51 76 1016.9
20200120000008 74 99 0.0 2.0 0.00 0.57 0.51 76 1016.8
20200119235507 74 65 0.0 0.0 0.00 0.57 0.51 75 1016.8
20200119235010 74 65 0.0 0.0 0.00 0.57 0.51 75 1016.5
20200119234507 74 65 0.0 2.0 0.00 0.57 0.51 75 1016.6
20200119234010 74 85 0.0 2.0 0.00 0.57 0.51 76 1016.3
20200119233508 74 82 0.0 2.0 0.00 0.57 0.51 76 1016.4
20200119233008 74 74 0.0 2.0 0.00 0.57 0.51 76 1016.3
20200119232511 74 96 0.0 2.0 0.00 0.57 0.51 76 1016.2
20200119232007 74 54 0.0 5.0 0.00 0.57 0.51 76 1016.0
20200119231507 74 84 0.0 2.0 0.00 0.57 0.51 76 1016.2
20200119231010 74 72 1.0 2.0 0.00 0.57 0.51 76 1016.1
20200119230007 74 63 0.0 2.0 0.00 0.57 0.51 76 1016.1
20200119225509 74 64 0.0 2.0 0.00 0.57 0.51 75 1016.1
20200119225008 74 79 0.0 2.0 0.00 0.57 0.51 75 1016.2
20200119224507 74 94 0.0 2.0 0.00 0.57 0.51 74 1015.9
20200119224010 74 82 0.0 2.0 0.00 0.57 0.51 73 1015.8
20200119223508 75 69 2.0 5.0 0.00 0.57 0.51 73 1015.8
20200119223007 75 75 0.0 2.0 0.00 0.57 0.51 73 1015.9
20200119222509 75 109 0.0 2.0 0.00 0.57 0.51 72 1015.9
20200119222007 75 91 1.0 5.0 0.00 0.60 0.51 72 1016.0
20200119221506 75 68 1.0 5.0 0.00 0.60 0.51 72 1015.8
20200119221009 75 77 1.0 5.0 0.00 0.60 0.51 72 1015.6
20200119220006 76 89 0.0 2.0 0.00 0.60 0.51 70 1015.7
20200119215509 76 104 0.0 7.0 0.00 0.60 0.51 70 1015.6
20200119215007 76 110 0.0 2.0 0.00 0.60 0.51 69 1015.7
20200119214507 76 87 0.0 2.0 0.00 0.60 0.51 68 1015.4
20200119214010 76 64 0.0 2.0 0.00 0.60 0.51 67 1015.6
20200119213509 76 63 1.0 5.0 0.00 0.60 0.51 67 1015.5
20200119213006 76 43 1.0 5.0 0.00 0.60 0.51 66 1015.6
20200119212507 77 197 2.0 7.0 0.00 0.60 0.51 65 1015.6
20200119212007 77 353 0.0 7.0 0.00 0.60 0.51 65 1015.6
20200119211507 77 69 2.0 7.0 0.00 0.60 0.51 65 1015.2
20200119211009 77 55 2.0 10.0 0.00 0.60 0.51 64 1015.2
20200119210007 77 67 3.0 13.0 0.00 0.60 0.51 62 1015.3
20200119205510 77 142 2.0 7.0 0.00 0.60 0.51 63 1015.4
20200119205007 77 59 1.0 5.0 0.00 0.60 0.51 64 1015.3
20200119204508 77 171 2.0 7.0 0.00 0.60 0.51 63 1015.3
20200119204009 77 56 3.0 7.0 0.00 0.60 0.51 61 1015.3
20200119203507 77 64 1.0 7.0 0.00 0.60 0.51 62 1015.4
20200119203007 77 65 3.0 7.0 0.00 0.60 0.51 61 1015.1
20200119202506 77 19 0.0 5.0 0.00 0.60 0.51 62 1015.3
20200119202006 78 100 2.0 10.0 0.00 0.60 0.51 60 1015.4
20200119201507 78 47 3.0 7.0 0.00 0.60 0.51 60 1015.2
20200119201009 78 129 2.0 10.0 0.00 0.60 0.51 60 1015.4
20200119200007 78 63 3.0 13.0 0.00 0.60 0.51 58 1015.3
20200119195509 78 62 3.0 13.0 0.00 0.60 0.51 56 1015.3
20200119195007 78 162 2.0 13.0 0.00 0.60 0.51 59 1015.2
20200119194507 78 69 5.0 10.0 0.00 0.60 0.51 58 1015.3
20200119194009 78 71 3.0 10.0 0.00 0.60 0.51 60 1015.1
20200119193506 78 203 2.0 10.0 0.00 0.60 0.51 60 1015.2
20200119193006 79 34 2.0 10.0 0.00 0.60 0.51 60 1015.3
20200119192506 79 79 2.0 10.0 0.00 0.60 0.51 60 1015.4
20200119192006 79 41 1.0 7.0 0.00 0.60 0.51 58 1015.2
20200119191506 79 71 3.0 10.0 0.00 0.60 0.51 58 1015.3
20200119191009 80 67 4.0 10.0 0.00 0.60 0.51 54 1015.4
20200119190006 79 89 2.0 10.0 0.00 0.60 0.51 53 1015.3
20200119185506 79 78 2.0 13.0 0.00 0.60 0.51 57 1015.3
20200119185007 79 69 1.0 10.0 0.00 0.60 0.51 59 1015.2
20200119184507 79 65 3.0 13.0 0.00 0.60 0.51 57 1015.1
20200119184006 79 66 3.0 7.0 0.00 0.60 0.51 57 1015.3
20200119183506 79 76 4.0 10.0 0.00 0.60 0.51 60 1015.4
20200119183006 79 178 4.0 10.0 0.00 0.60 0.51 58 1015.3
20200119182506 80 58 3.0 10.0 0.00 0.60 0.51 60 1015.4
20200119182006 80 191 2.0 7.0 0.00 0.60 0.51 59 1015.4
20200119181506 80 110 2.0 10.0 0.00 0.60 0.51 60 1015.6
20200119181006 80 59 3.0 10.0 0.00 0.60 0.51 59 1015.6
20200119180006 80 27 2.0 10.0 0.00 0.60 0.51 58 1015.6
20200119175505 80 26 2.0 7.0 0.00 0.60 0.51 55 1015.7
20200119175005 80 117 3.0 10.0 0.00 0.60 0.51 57 1015.7
20200119174506 80 15 2.0 7.0 0.00 0.60 0.51 57 1015.8
20200119174006 80 270 2.0 10.0 0.00 0.60 0.51 59 1015.7
20200119173507 80 0 2.0 7.0 0.00 0.60 0.51 60 1015.8
20200119173006 80 106 3.0 7.0 0.00 0.60 0.51 57 1015.8
20200119172506 80 128 3.0 7.0 0.00 0.60 0.51 55 1016.0
20200119172006 80 92 2.0 13.0 0.00 0.60 0.51 56 1016.0
20200119171506 80 112 3.0 13.0 0.00 0.60 0.51 56 1016.0
20200119171006 80 54 3.0 10.0 0.00 0.60 0.51 54 1016.1
20200119170005 80 74 4.0 13.0 0.00 0.60 0.51 55 1016.3
20200119165506 80 56 4.0 7.0 0.00 0.60 0.51 55 1016.4
20200119165006 80 56 3.0 10.0 0.00 0.60 0.51 54 1016.4
20200119164505 80 54 3.0 10.0 0.00 0.60 0.51 54 1016.5
20200119164005 80 106 3.0 13.0 0.00 0.60 0.51 55 1016.6
20200119163506 80 72 3.0 10.0 0.00 0.60 0.51 57 1016.7
20200119163006 81 113 3.0 7.0 0.00 0.60 0.51 57 1016.7
20200119162505 81 66 2.0 10.0 0.00 0.60 0.51 57 1016.9
20200119162006 81 56 2.0 10.0 0.00 0.60 0.51 56 1016.8
20200119161505 81 134 3.0 10.0 0.00 0.60 0.51 57 1016.9
20200119161005 82 62 6.0 15.0 0.00 0.60 0.51 54 1016.9
20200119160006 77 143 1.0 2.0 0.00 0.60 0.51 69 1018.2
20200119155505 77 143 1.0 2.0 0.00 0.60 0.51 69 1018.2
20200119155006 77 143 1.0 2.0 0.00 0.60 0.51 69 1018.2
20200119154506 77 143 1.0 2.0 0.00 0.60 0.51 69 1018.2
20200119154005 77 143 1.0 2.0 0.00 0.60 0.51 69 1018.2
20200119153505 77 143 1.0 2.0 0.00 0.61 0.51 69 1018.2
20200119153005 77 143 1.0 2.0 0.00 0.64 0.51 69 1018.2
20200119152505 77 143 1.0 2.0 0.00 0.64 0.51 69 1018.2
20200119152005 77 143 1.0 2.0 0.00 0.64 0.51 69 1018.2
20200119151505 77 143 1.0 2.0 0.00 0.64 0.51 69 1018.2
20200119151005 77 143 1.0 2.0 0.00 0.64 0.51 69 1018.2
20200119150005 77 143 1.0 2.0 0.00 0.64 0.51 69 1018.2
20200119145506 77 143 1.0 2.0 0.00 0.64 0.51 69 1018.2
20200119145009 77 143 1.0 2.0 0.00 0.65 0.51 69 1018.2
20200119144505 77 143 1.0 2.0 0.00 0.65 0.51 69 1018.2
20200119144007 77 143 1.0 2.0 0.00 0.65 0.51 69 1018.2
20200119143505 77 143 1.0 2.0 0.00 0.65 0.51 69 1018.2
20200119143005 77 143 1.0 2.0 0.00 0.65 0.51 69 1018.2
20200119142505 77 143 1.0 2.0 0.00 0.65 0.51 69 1018.2
20200119142007 77 143 1.0 2.0 0.00 0.65 0.51 69 1018.2
20200119141506 77 143 1.0 2.0 0.00 0.65 0.51 69 1018.2
20200119141005 77 143 1.0 2.0 0.00 0.65 0.51 69 1018.2
20200119140005 77 143 1.0 2.0 0.00 0.65 0.51 69 1018.2
20200119135504 77 143 1.0 2.0 0.01 0.65 0.51 69 1018.2
20200119135007 77 143 1.0 2.0 0.01 0.65 0.51 69 1018.2
20200119134504 77 143 1.0 2.0 0.01 0.65 0.51 69 1018.2
20200119134005 77 143 1.0 2.0 0.02 0.65 0.51 69 1018.2
20200119133509 77 143 1.0 2.0 0.02 0.65 0.51 69 1018.2
20200119133005 77 143 1.0 2.0 0.02 0.65 0.51 69 1018.2
20200119132506 77 143 1.0 2.0 0.02 0.65 0.51 69 1018.2
20200119132008 77 143 1.0 2.0 0.02 0.65 0.51 69 1018.2
20200119131505 77 143 1.0 2.0 0.02 0.65 0.51 69 1018.2
20200119131005 77 157 3.0 10.0 0.02 0.65 0.51 68 1018.2
20200119130005 76 64 2.0 7.0 0.02 0.65 0.51 75 1018.2
20200119125505 76 119 2.0 5.0 0.01 0.64 0.50 75 1018.2
20200119125004 76 49 0.0 2.0 0.01 0.64 0.50 74 1018.2
20200119124505 76 82 1.0 5.0 0.01 0.64 0.50 73 1018.2
20200119124005 77 99 1.0 5.0 0.00 0.63 0.48 72 1018.2
20200119123506 77 92 2.0 7.0 0.00 0.63 0.48 72 1018.0
20200119123005 77 68 1.0 5.0 0.00 0.63 0.48 72 1018.0
20200119122504 77 60 2.0 10.0 0.00 0.63 0.48 71 1017.8
20200119122005 77 88 1.0 7.0 0.01 0.63 0.48 69 1017.6
20200119121504 77 95 2.0 7.0 0.01 0.63 0.48 66 1017.8
20200119121005 77 173 1.0 7.0 0.01 0.63 0.48 65 1017.6
20200119120004 76 86 1.0 2.0 0.01 0.63 0.48 70 1017.4
20200119115508 76 96 1.0 2.0 0.01 0.63 0.48 72 1017.4
20200119115004 76 145 0.0 2.0 0.01 0.63 0.48 72 1017.2
20200119114505 76 102 1.0 5.0 0.01 0.63 0.48 72 1017.1
20200119114005 76 89 2.0 5.0 0.01 0.63 0.48 71 1017.0
20200119113506 75 79 1.0 5.0 0.01 0.63 0.48 71 1017.0
20200119113007 78 56 0.0 2.0 0.01 0.63 0.48 96 1015.2